Weather History for Wright-Patt AFB, OH

Change the Weather History Date:

Tuesday, February 4, 2014

  Actual Average Record
Temperature  
Mean Temperature 23 °F -  
Max Temperature 29 °F 38 °F 59 °F (2008)
Min Temperature 17 °F 21 °F 2 °F (2007)
Degree Days  
Heating Degree Days 42    
Moisture  
Dew Point 18 °F    
Average Humidity 79    
Maximum Humidity 93    
Minimum Humidity 63    
Precipitation  
Precipitation 0.36 in - - ()
Sea Level Pressure  
Sea Level Pressure 30.20 in    
Wind  
Wind Speed 7 mph (NE)    
Max Wind Speed 16 mph    
Max Gust Speed -    
Visibility 6 miles    
Events Snow    
Averages and records for this station are not official NWS values.
T = Trace of Precipitation, MM = Missing Value Source: NWS Daily Summary

Daily Weather History Graph

Daily Weather History Graph

Search for Another Location

Airport:

Trip Planner

Search our weather history database for the weather conditions in past years. The results will help you decide how hot, cold, wet, or windy it might be!

Date:

Astronomy

Feb. 04, 2014 Rise Set
Actual Time 7:41 AM EST 5:59 PM EST
Civil Twilight 7:13 AM EST 6:27 PM EST
Nautical Twilight 6:40 AM EST 6:59 PM EST
Astronomical Twilight 6:09 AM EST 7:31 PM EST
Moon 10:19 AM EST (2/4) 11:51 PM EST (2/4)
Length of Visible Light 11h 14m
Length of Day
10h 18m
Waxing Crescent, 29% of the Moon is Illuminated
Feb 4
Waxing Crescent
Feb 6
First Quarter
Feb 14
Full
Feb 22
Last Quarter
Mar 1
New

Hourly Weather History & Observations

Time (EST) Temp. Windchill Dew Point Humidity Pressure Visibility Wind Dir Wind Speed Gust Speed Precip Events Conditions
12:58 AM 17.1 °F - 12.0 °F 81% 30.39 in 10.0 mi NNE 2.3 mph - N/A   Partly Cloudy
1:58 AM 17.6 °F 12.3 °F 11.3 °F 76% 30.38 in 10.0 mi NNE 3.5 mph - N/A   Clear
2:58 AM 17.6 °F 10.7 °F 11.8 °F 78% 30.39 in 10.0 mi NE 4.6 mph - N/A   Clear
3:58 AM 17.8 °F 10.9 °F 12.0 °F 78% 30.37 in 10.0 mi NNE 4.6 mph - N/A   Clear
4:58 AM 18.9 °F 12.1 °F 12.7 °F 77% 30.38 in 10.0 mi North 4.6 mph - N/A   Clear
5:58 AM 19.8 °F 13.2 °F 13.5 °F 77% 30.40 in 10.0 mi NNE 4.6 mph - N/A   Scattered Clouds
6:58 AM 19.6 °F 10.6 °F 13.8 °F 78% 30.38 in 10.0 mi NE 6.9 mph - N/A   Clear
7:58 AM 20.5 °F 14.0 °F 14.0 °F 76% 30.42 in 10.0 mi North 4.6 mph - N/A   Scattered Clouds
8:58 AM 21.7 °F 14.3 °F 14.7 °F 74% 30.42 in 10.0 mi ENE 5.8 mph - N/A   Partly Cloudy
9:58 AM 23.7 °F 14.7 °F 15.8 °F 72% 30.38 in 10.0 mi ENE 8.1 mph - N/A   Partly Cloudy
10:58 AM 25.3 °F 16.0 °F 16.9 °F 70% 30.36 in 10.0 mi NE 9.2 mph - N/A   Clear
11:58 AM 28.9 °F 21.9 °F 17.6 °F 63% 30.34 in 10.0 mi ENE 6.9 mph - N/A   Mostly Cloudy
12:58 PM 28.9 °F 19.8 °F 17.8 °F 63% 30.29 in 10.0 mi ENE 10.4 mph - N/A   Partly Cloudy
1:58 PM 29.5 °F 21.8 °F 18.3 °F 63% 30.28 in 10.0 mi NE 8.1 mph - N/A   Overcast
2:58 PM 29.7 °F 22.8 °F 18.3 °F 63% 30.28 in 10.0 mi ENE 6.9 mph - N/A   Partly Cloudy
3:58 PM 28.8 °F 17.5 °F 19.0 °F 67% 30.22 in 10.0 mi NNE 15.0 mph - N/A   Clear
4:58 PM 28.2 °F 17.7 °F 18.3 °F 66% 30.21 in 10.0 mi NNE 12.7 mph - N/A   Clear
5:58 PM 28.0 °F 18.6 °F 17.1 °F 63% 30.22 in 10.0 mi NE 10.4 mph - N/A   Clear
6:58 PM 27.5 °F 16.8 °F 17.4 °F 66% 30.19 in 10.0 mi NE 12.7 mph - N/A   Overcast
7:08 PM 26.6 °F 14.7 °F 17.6 °F 69% 30.13 in 3.0 mi NNE 15.0 mph - N/A Snow Light Snow
7:25 PM 24.8 °F 12.4 °F 19.4 °F 80% 30.11 in 2.0 mi NNE 15.0 mph - N/A Snow Light Snow
7:36 PM 24.8 °F 11.9 °F 21.2 °F 86% 30.10 in 2.0 mi NNE 16.1 mph - N/A Snow Light Snow
7:50 PM 24.8 °F 11.9 °F 21.2 °F 86% 30.07 in 1.5 mi NE 16.1 mph - N/A Snow Light Snow
7:59 PM 24.8 °F 17.9 °F 21.2 °F 86% 30.10 in 1.5 mi NE 5.8 mph - N/A Snow Light Snow
8:12 PM 24.8 °F 17.9 °F 21.2 °F 86% 30.05 in 1.5 mi NE 5.8 mph - N/A Snow Light Snow
8:21 PM 23.0 °F 10.1 °F 21.2 °F 93% 30.06 in 1.2 mi NE 15.0 mph - N/A Snow Light Snow
8:31 PM 23.0 °F 11.1 °F 21.2 °F 93% 30.06 in 0.8 mi NE 12.7 mph - N/A Snow Light Snow
8:51 PM 23.0 °F 11.7 °F 21.2 °F 93% 30.05 in 0.8 mi NE 11.5 mph - N/A Snow Light Snow
8:58 PM 23.9 °F 12.3 °F 21.4 °F 90% 30.09 in 0.8 mi NE 12.7 mph - 0.04 in Snow Light Snow
9:19 PM 23.0 °F 12.4 °F 21.2 °F 93% 30.05 in 1.0 mi NNE 10.4 mph - N/A Snow Light Snow
9:49 PM 23.0 °F 11.7 °F 21.2 °F 93% 30.02 in 0.8 mi NE 11.5 mph - N/A Snow Light Snow
9:58 PM 23.0 °F 12.4 °F 21.2 °F 93% 30.07 in 0.8 mi NE 10.4 mph - 0.08 in Snow Light Snow
10:58 PM 23.0 °F 13.9 °F 21.2 °F 93% 30.04 in 1.0 mi NE 8.1 mph - 0.10 in Snow Light Snow
11:38 PM 24.8 °F 14.6 °F 21.2 °F 86% 29.94 in 0.8 mi NE 10.4 mph - N/A Snow Light Snow
11:58 PM 24.3 °F 12.7 °F 22.1 °F 91% 29.93 in 3.0 mi NE 12.7 mph - 0.14 in Snow Light Snow